Zurück zum Katalog

NOAA 16 DEB

AktivSSO
NORAD 41360·DEBRIS·🇺🇸 United States

Gestartet Sep 21, 2000 von Vandenberg Space Force Base

Loading…

Nächste Überflüge (nächste 24 Stunden)

TLE

AktuellSource: Space-Track

Epoche: Sep 12, 2026, 13:59 UTC

1 41360U 00055JD  26255.58301687  .00003002  00000-0  10942-2 0  9995
2 41360  98.9045  24.4386 0023912 116.3432 244.0210 14.33722922549753

Verfolge NOAA 16 DEB in Echtzeit mit AllMySat

Download on the App Store